Tracking 31027 objects as of 19-Jul-2025
HD Live streaming from Space Station
objects crossing your sky now

PEGASUS DEB

Track PEGASUS DEB now!
10-day predictions


NORAD ID: 24973
Int'l Code: 1994-029ACF
Perigee: 568.3 km
Apogee: 1,001.4 km
Inclination: 82.0 °
Period: 100.4 minutes
Semi major axis: 7155 km
RCS: 0.0085 m2 (small)
Launch date: May 19, 1994
Source: United States (US)
Launch site: AIR FORCE WESTERN TEST RANGE (AFWTR)

Note: This is SATELLITE DEBRIS
Your satellite tracking list
KL-BETA B
Track 1 satellite(s)




NASA's NSSDC Master Catalog

Two Line Element Set (TLE):
1 24973U 94029ACF 25198.43658204  .00002557  00000-0  53821-3 0  9997
2 24973  82.0163 355.7530 0302628  78.3996 313.6913 14.34213008501219
Source of the keplerian elements: AFSPC